Weather History for KABQ - November, 2013

Change the Weather History Date:

Thursday, November 14, 2013

  Actual Average Record
Temperature  
Mean Temperature 49 °F 46 °F  
Max Temperature 60 °F 56 °F 76 °F (1903)
Min Temperature 37 °F 35 °F 11 °F (1916)
Degree Days  
Heating Degree Days 16 20  
Month to date heating degree days 218 234  
Since 1 July heating degree days 515 500  
Cooling Degree Days 0 0  
Month to date cooling degree days 0 0  
Year to date cooling degree days 1565 1322  
Moisture  
Dew Point 34 °F    
Average Humidity 65    
Maximum Humidity 92    
Minimum Humidity 38    
Precipitation  
Precipitation 0.00 in 0.02 in 0.37 in (2001)
Month to date precipitation 0.14 0.28  
Year to date precipitation 8.16 8.66  
Snow  
Snow 0.00 in - - ()
Month to date snowfall 0.0  
Since 1 July snowfall 0.0  
Since 1 September snowfall 0.0  
Snow Depth 0.00 in    
Sea Level Pressure  
Sea Level Pressure 30.01 in    
Wind  
Wind Speed 4 mph (SE)    
Max Wind Speed 10 mph    
Max Gust Speed 14 mph    
Visibility 10 miles    
Events      
T = Trace of Precipitation, MM = Missing Value Source: NWS Daily Summary

Daily Weather History Graph

Daily Weather History Graph

Search for Another Location

Airport or City:

Trip Planner

Search our weather history database for the weather conditions in past years. The results will help you decide how hot, cold, wet, or windy it might be!

Date:

Astronomy

Nov. 14, 2013 Rise Set
Actual Time 6:40 AM MST 5:01 PM MST
Civil Twilight 6:13 AM MST 5:28 PM MST
Nautical Twilight 5:42 AM MST 5:58 PM MST
Astronomical Twilight 5:12 AM MST 6:28 PM MST
Moon 3:18 PM MST (11/14) 3:44 AM MST (11/14)
Length of Visible Light 11h 14m
Length of Day
10h 20m
Waxing Gibbous, 92% of the Moon is Illuminated
Nov 14
Waxing Gibbous
Nov 17
Full
Nov 25
Last Quarter
Dec 2
New
Dec 9
First Quarter

Hourly Weather History & Observations

Time (MST) Temp. Windchill Dew Point Humidity Pressure Visibility Wind Dir Wind Speed Gust Speed Precip Events Conditions
12:52 AM 42.1 °F 37.1 °F 37.0 °F 82% 30.10 in 10.0 mi SE 8.1 mph - N/A   Scattered Clouds
1:52 AM 41.0 °F 37.1 °F 36.0 °F 82% 30.08 in 10.0 mi SE 5.8 mph - N/A   Scattered Clouds
2:52 AM 39.9 °F 37.8 °F 36.0 °F 86% 30.07 in 10.0 mi ESE 3.5 mph - N/A   Scattered Clouds
3:52 AM 39.0 °F 34.0 °F 35.1 °F 86% 30.06 in 10.0 mi ESE 6.9 mph - N/A   Scattered Clouds
4:52 AM 39.0 °F 35.7 °F 36.0 °F 89% 30.06 in 10.0 mi ESE 4.6 mph - N/A   Partly Cloudy
5:52 AM 37.9 °F 32.7 °F 35.1 °F 89% 30.06 in 10.0 mi ESE 6.9 mph - N/A   Scattered Clouds
6:52 AM 37.9 °F - 35.1 °F 89% 30.09 in 10.0 mi Calm Calm - N/A   Scattered Clouds
7:52 AM 41.0 °F - 37.9 °F 89% 30.10 in 10.0 mi Calm Calm - N/A   Mostly Cloudy
8:52 AM 43.0 °F - 39.0 °F 86% 30.10 in 10.0 mi Calm Calm - N/A   Scattered Clouds
9:52 AM 45.0 °F 43.5 °F 39.0 °F 80% 30.09 in 10.0 mi Variable 3.5 mph - N/A   Scattered Clouds
10:52 AM 50.0 °F - 39.0 °F 66% 30.06 in 10.0 mi Calm Calm - N/A   Scattered Clouds
11:52 AM 52.0 °F - 37.0 °F 57% 30.02 in 10.0 mi West 5.8 mph - N/A   Mostly Cloudy
12:52 PM 55.0 °F - 35.1 °F 47% 29.99 in 10.0 mi Variable 4.6 mph - N/A   Scattered Clouds
1:52 PM 57.9 °F - 35.1 °F 42% 29.96 in 10.0 mi Calm Calm - N/A   Scattered Clouds
2:52 PM 57.0 °F - 33.1 °F 40% 29.95 in 10.0 mi Variable 3.5 mph - N/A   Partly Cloudy
3:52 PM 57.9 °F - 32.0 °F 37% 29.93 in 10.0 mi SE 3.5 mph - N/A   Partly Cloudy
4:52 PM 55.4 °F - 30.2 °F 38% 29.92 in 10.0 mi SE 5.8 mph - N/A   Scattered Clouds
5:52 PM 53.1 °F - 30.9 °F 43% 29.95 in 10.0 mi Calm Calm - N/A   Scattered Clouds
6:52 PM 50.0 °F - 30.0 °F 46% 29.98 in 10.0 mi Calm Calm - N/A   Partly Cloudy
7:52 PM 46.9 °F - 28.9 °F 50% 29.97 in 10.0 mi SE 3.5 mph - N/A   Partly Cloudy
8:52 PM 43.0 °F 41.3 °F 28.9 °F 58% 29.98 in 10.0 mi SE 3.5 mph - N/A   Partly Cloudy
9:52 PM 45.0 °F 40.6 °F 30.0 °F 56% 29.95 in 10.0 mi East 8.1 mph - N/A   Partly Cloudy
10:52 PM 42.1 °F 39.2 °F 30.0 °F 62% 29.94 in 10.0 mi WSW 4.6 mph - N/A   Clear
11:52 PM 39.0 °F 35.7 °F 28.0 °F 65% 29.92 in 10.0 mi East 4.6 mph - N/A   Clear